Location: Saint John
(45.2733°N, 66.0633°W)
Time: 16:50:53
(UTC-04:00)

BlueWalker 3 - Pass Details

Date: 30 November 2022
Orbit: 499 x 517 km, 53.2° (Epoch: 04 February)

Event Time Altitude Azimuth Distance (km) Brightness Sun altitude
Rises 19:01:25 0° 291° (WNW) 2,626 6.6 -23.6°
Reaches altitude 10° 19:03:55 10° 305° (NW) 1,735 5.3 -24.0°
Enters shadow 19:06:18 23° 339° (NNW) 1,132 3.8 -24.4°
